Location: Village de las Huertas
(35.3014°N, 106.4095°W)
Time: 08:41:49
(UTC+00:00)

Abrixas rocket - Pass Details

Date: 29 October 2020
Orbit: 319 x 321 km, 48.4° (Epoch: 04 December)

Event Time Altitude Azimuth Distance (km) Brightness Sun altitude
Exits shadow 12:34:03 13° 319° (NW) 1,127 4.0 -10.9°
Maximum altitude 12:36:27 48° 34° (NE) 448 2.6 -10.5°
Drops below altitude 10° 12:39:14 10° 111° (ESE) 1,279 6.2 -9.9°
Sets 12:41:17 0° 117° (ESE) 2,119 7.5 -9.5°
